EZS62LY LATI-LSGG

Flight info

Callsign EZS62LY
Flight time N/A
Altitude 18000
Route INLOT2R INLOT L604 RETRA/N0445F380 DCT POD DCT BARIT DCT UNIPA DCT ULPIN DCT LABIN DCT OTKEK DCT VAKON DCT SRN DCT OMETO DCT TERSI DCT AOSTA/N0368F220 L615 BANKO BANKO3R
Aircraft A320/M-SDE3FGHIRWY/LB1

Departure

Time 2026-05-07 15:02
Airport Tirana International Airport Mother Teresa (LATI)

Arrival

Time N/A
Airport Geneva International Airport (LSGG)
Time Latitude Longitude Altitude Speed Heading
2026-05-07 14:32 41.42146 19.71491 116 ft 0 kts 264°
2026-05-07 14:54 41.42147 19.71519 114 ft 4 kts 284°
2026-05-07 14:55 41.42135 19.71546 116 ft 4 kts 334°
2026-05-07 14:55 41.42120 19.71552 115 ft 1 kts 357°
2026-05-07 14:55 41.42117 19.71552 114 ft 0 kts 357°
2026-05-07 14:57 41.42120 19.71552 115 ft 2 kts 357°
2026-05-07 14:57 41.42164 19.71549 114 ft 7 kts 357°
2026-05-07 14:58 41.42217 19.71545 116 ft 10 kts 355°
2026-05-07 14:58 41.42304 19.71534 116 ft 13 kts 354°
2026-05-07 14:58 41.42403 19.71521 115 ft 15 kts 354°
2026-05-07 14:58 41.42519 19.71505 114 ft 18 kts 354°
2026-05-07 14:59 41.42627 19.71492 115 ft 11 kts 355°
2026-05-07 14:59 41.42672 19.71559 113 ft 12 kts 85°
2026-05-07 14:59 41.42678 19.71662 114 ft 11 kts 85°
2026-05-07 14:59 41.42684 19.71754 114 ft 9 kts 85°
2026-05-07 15:00 41.42686 19.71784 115 ft 0 kts 85°
2026-05-07 15:01 41.42689 19.71830 115 ft 8 kts 85°
2026-05-07 15:01 41.42684 19.71891 114 ft 6 kts 135°
2026-05-07 15:01 41.42654 19.71901 115 ft 0 kts 173°
2026-05-07 15:01 41.42620 19.71906 112 ft 23 kts 174°
2026-05-07 15:02 41.42174 19.71964 114 ft 100 kts 174°
2026-05-07 15:02 41.41276 19.72082 126 ft 156 kts 174°
2026-05-07 15:02 41.40127 19.72237 602 ft 170 kts 176°
2026-05-07 15:02 41.38925 19.72384 1285 ft 180 kts 176°
2026-05-07 15:03 41.37596 19.72528 1690 ft 203 kts 175°
2026-05-07 15:03 41.36121 19.72718 2108 ft 223 kts 174°
2026-05-07 15:03 41.34518 19.72943 2737 ft 236 kts 174°
2026-05-07 15:03 41.32839 19.73178 3455 ft 251 kts 174°
2026-05-07 15:04 41.31076 19.73423 4387 ft 256 kts 174°
2026-05-07 15:04 41.29302 19.73668 5398 ft 258 kts 175°
2026-05-07 15:04 41.27502 19.73911 6348 ft 262 kts 175°
2026-05-07 15:04 41.25669 19.73920 7166 ft 267 kts 193°
2026-05-07 15:05 41.23972 19.72920 8036 ft 270 kts 218°
2026-05-07 15:05 41.22739 19.71061 8963 ft 272 kts 241°
2026-05-07 15:05 41.22187 19.68653 9883 ft 276 kts 264°
2026-05-07 15:05 41.22447 19.66115 10740 ft 283 kts 288°
2026-05-07 15:06 41.23529 19.63907 11576 ft 293 kts 313°
2026-05-07 15:06 41.25313 19.62465 12141 ft 317 kts 339°
2026-05-07 15:06 41.27563 19.61794 12414 ft 342 kts 346°
2026-05-07 15:06 41.29948 19.61242 13015 ft 352 kts 347°
2026-05-07 15:07 41.32380 19.60726 13770 ft 356 kts 347°
2026-05-07 15:07 41.34835 19.60210 14437 ft 360 kts 346°
2026-05-07 15:07 41.37329 19.59668 15109 ft 363 kts 346°
2026-05-07 15:07 41.39791 19.59114 15758 ft 367 kts 346°
2026-05-07 15:08 41.42328 19.58527 16455 ft 370 kts 346°
2026-05-07 15:08 41.44873 19.57927 17120 ft 373 kts 346°
2026-05-07 15:08 41.47440 19.57317 17795 ft 377 kts 346°
2026-05-07 15:08 41.50027 19.56702 18431 ft 380 kts 346°
2026-05-07 15:09 41.52643 19.56078 18992 ft 383 kts 346°
2026-05-07 15:09 41.55276 19.55453 19568 ft 386 kts 346°
2026-05-07 15:09 41.57930 19.54825 20125 ft 389 kts 346°
2026-05-07 15:09 41.60610 19.54194 20685 ft 391 kts 346°
2026-05-07 15:10 41.63296 19.53560 21229 ft 394 kts 345°
2026-05-07 15:10 41.65997 19.52918 21776 ft 396 kts 345°
2026-05-07 15:10 41.68721 19.52268 22318 ft 398 kts 345°
2026-05-07 15:10 41.71454 19.51619 22848 ft 401 kts 345°
2026-05-07 15:11 41.74212 19.50966 23365 ft 403 kts 345°
2026-05-07 15:11 41.76986 19.50311 23827 ft 406 kts 345°
2026-05-07 15:11 41.79779 19.49650 24243 ft 409 kts 345°
2026-05-07 15:11 41.82589 19.48984 24679 ft 410 kts 345°
2026-05-07 15:12 41.85402 19.48315 25113 ft 412 kts 345°
2026-05-07 15:12 41.88229 19.47640 25555 ft 413 kts 345°
2026-05-07 15:12 41.91070 19.46959 25981 ft 415 kts 345°
2026-05-07 15:12 41.93920 19.46279 26393 ft 417 kts 345°
2026-05-07 15:13 41.96781 19.45594 26803 ft 419 kts 344°
2026-05-07 15:13 41.99576 19.44561 27169 ft 416 kts 335°
2026-05-07 15:13 42.01423 19.43678 27430 ft 417 kts 335°
2026-05-07 15:13 42.04165 19.42373 27837 ft 419 kts 335°
2026-05-07 15:14 42.06882 19.41086 28237 ft 420 kts 335°
2026-05-07 15:14 42.09685 19.39761 28648 ft 422 kts 335°
2026-05-07 15:14 42.12459 19.38448 29035 ft 424 kts 335°
2026-05-07 15:14 42.15206 19.37146 29411 ft 425 kts 335°
2026-05-07 15:15 42.17997 19.35818 29793 ft 427 kts 335°
2026-05-07 15:15 42.20815 19.34475 30092 ft 430 kts 335°
2026-05-07 15:15 42.23634 19.33126 30353 ft 432 kts 335°
2026-05-07 15:15 42.26460 19.31731 30636 ft 433 kts 334°
2026-05-07 15:16 42.29287 19.30293 30915 ft 434 kts 334°
2026-05-07 15:16 42.32114 19.28833 31207 ft 436 kts 334°
2026-05-07 15:16 42.34942 19.27348 31497 ft 435 kts 331°
2026-05-07 15:16 42.37593 19.25458 31900 ft 427 kts 322°
2026-05-07 15:17 42.39943 19.23053 32286 ft 421 kts 314°
2026-05-07 15:17 42.41966 19.20227 32623 ft 417 kts 307°
2026-05-07 15:17 42.43865 19.17260 32992 ft 416 kts 307°
2026-05-07 15:17 42.45757 19.14304 33364 ft 415 kts 307°
2026-05-07 15:18 42.47647 19.11347 33765 ft 414 kts 307°
2026-05-07 15:18 42.49520 19.08413 34267 ft 409 kts 306°
2026-05-07 15:18 42.51368 19.05518 34683 ft 406 kts 306°
2026-05-07 15:18 42.53213 19.02617 34965 ft 406 kts 306°
2026-05-07 15:19 42.55052 18.99716 35252 ft 406 kts 306°
2026-05-07 15:19 42.56894 18.96806 35518 ft 406 kts 306°
2026-05-07 15:19 42.58732 18.93898 35781 ft 407 kts 306°
2026-05-07 15:19 42.60579 18.90979 36005 ft 407 kts 306°
2026-05-07 15:20 42.62422 18.88071 36255 ft 407 kts 306°
2026-05-07 15:20 42.64275 18.85149 36501 ft 407 kts 306°
2026-05-07 15:20 42.66121 18.82236 36722 ft 408 kts 306°
2026-05-07 15:20 42.67970 18.79305 36904 ft 409 kts 306°
2026-05-07 15:21 42.69818 18.76362 37106 ft 410 kts 306°
2026-05-07 15:21 42.71671 18.73409 37292 ft 410 kts 306°
2026-05-07 15:21 42.73529 18.70452 37469 ft 411 kts 306°
2026-05-07 15:21 42.75384 18.67501 37666 ft 411 kts 306°
2026-05-07 15:22 42.77243 18.64543 37868 ft 412 kts 306°
2026-05-07 15:22 42.79108 18.61573 38049 ft 412 kts 306°
2026-05-07 15:22 42.82806 18.55683 38092 ft 412 kts 306°
2026-05-07 15:23 42.86524 18.49740 38095 ft 412 kts 306°
2026-05-07 15:23 42.90228 18.43791 38095 ft 412 kts 306°
2026-05-07 15:24 42.93943 18.37822 38095 ft 413 kts 305°
2026-05-07 15:24 42.97665 18.31822 38104 ft 414 kts 305°
2026-05-07 15:25 43.01414 18.25765 38103 ft 415 kts 305°
2026-05-07 15:25 43.05112 18.19788 38105 ft 415 kts 305°
2026-05-07 15:26 43.08854 18.13725 38096 ft 415 kts 305°
2026-05-07 15:26 43.12572 18.07681 38095 ft 415 kts 305°
2026-05-07 15:27 43.16274 18.01663 38099 ft 415 kts 305°
2026-05-07 15:27 43.19992 17.95614 38122 ft 415 kts 305°
2026-05-07 15:28 43.23711 17.89545 38105 ft 416 kts 305°
2026-05-07 15:28 43.27413 17.83448 38101 ft 416 kts 304°
2026-05-07 15:29 43.30989 17.77223 38108 ft 415 kts 303°
2026-05-07 15:29 43.34503 17.70953 38112 ft 414 kts 302°
2026-05-07 15:30 43.38031 17.64690 38113 ft 414 kts 303°
2026-05-07 15:30 43.41584 17.58445 38107 ft 415 kts 303°
2026-05-07 15:31 43.45138 17.52192 38104 ft 414 kts 303°
2026-05-07 15:31 43.48684 17.45931 38107 ft 415 kts 303°
2026-05-07 15:32 43.52226 17.39659 38123 ft 414 kts 303°
2026-05-07 15:32 43.55755 17.33385 38130 ft 414 kts 303°
2026-05-07 15:33 43.59283 17.27112 38122 ft 414 kts 303°
2026-05-07 15:33 43.62806 17.20840 38118 ft 413 kts 303°
2026-05-07 15:34 43.66321 17.14565 38108 ft 413 kts 302°
2026-05-07 15:34 43.69831 17.08284 38102 ft 413 kts 302°
2026-05-07 15:35 43.73334 17.01992 38113 ft 413 kts 303°
2026-05-07 15:35 43.76837 16.95686 38102 ft 413 kts 302°
2026-05-07 15:36 43.80318 16.89416 38093 ft 414 kts 302°
2026-05-07 15:36 43.83815 16.83089 38097 ft 414 kts 302°
2026-05-07 15:37 43.87315 16.76744 38086 ft 414 kts 302°
2026-05-07 15:37 43.90845 16.70346 38093 ft 416 kts 302°
2026-05-07 15:38 43.94328 16.64026 38079 ft 415 kts 302°
2026-05-07 15:38 43.97829 16.57652 38078 ft 416 kts 302°
2026-05-07 15:39 44.01331 16.51245 38075 ft 417 kts 302°
2026-05-07 15:39 44.04394 16.44500 38080 ft 411 kts 293°
2026-05-07 15:40 44.07055 16.37472 38063 ft 411 kts 293°
2026-05-07 15:40 44.09731 16.30424 38057 ft 413 kts 293°
2026-05-07 15:41 44.12406 16.23358 38056 ft 412 kts 293°
2026-05-07 15:41 44.15074 16.16282 38055 ft 413 kts 293°
2026-05-07 15:42 44.17734 16.09201 38076 ft 413 kts 293°
2026-05-07 15:42 44.20391 16.02107 38066 ft 412 kts 293°
2026-05-07 15:43 44.23037 15.95039 38059 ft 412 kts 293°
2026-05-07 15:43 44.25692 15.87939 38056 ft 412 kts 293°
2026-05-07 15:44 44.28338 15.80838 38084 ft 413 kts 292°
2026-05-07 15:44 44.30974 15.73722 38067 ft 413 kts 292°
2026-05-07 15:45 44.33615 15.66595 38059 ft 413 kts 292°
2026-05-07 15:45 44.36259 15.59450 38062 ft 414 kts 292°
2026-05-07 15:46 44.40205 15.48727 38078 ft 413 kts 292°
2026-05-07 15:47 44.42824 15.41571 38070 ft 414 kts 292°
2026-05-07 15:47 44.45448 15.34416 38058 ft 413 kts 292°
2026-05-07 15:48 44.48060 15.27265 38054 ft 412 kts 292°
2026-05-07 15:48 44.50668 15.20106 38053 ft 412 kts 292°
2026-05-07 15:49 44.53268 15.12944 38062 ft 413 kts 292°
2026-05-07 15:49 44.55863 15.05777 38056 ft 412 kts 292°
2026-05-07 15:50 44.58456 14.98600 38050 ft 412 kts 292°
2026-05-07 15:50 44.61045 14.91422 38058 ft 412 kts 291°
2026-05-07 15:51 44.63631 14.84234 38046 ft 413 kts 291°
2026-05-07 15:51 44.66204 14.77044 38040 ft 413 kts 291°
2026-05-07 15:52 44.68762 14.69877 38039 ft 413 kts 291°
2026-05-07 15:52 44.70924 14.62489 38037 ft 406 kts 280°
2026-05-07 15:53 44.72351 14.54815 38035 ft 406 kts 280°
2026-05-07 15:53 44.73782 14.47136 38046 ft 406 kts 280°
2026-05-07 15:54 44.75210 14.39465 38044 ft 406 kts 280°
2026-05-07 15:54 44.76635 14.31783 38035 ft 406 kts 280°
2026-05-07 15:55 44.78054 14.24097 38030 ft 406 kts 280°
2026-05-07 15:55 44.79472 14.16411 38053 ft 406 kts 280°
2026-05-07 15:56 44.80881 14.08722 38029 ft 406 kts 280°
2026-05-07 15:56 44.82284 14.01016 38036 ft 406 kts 280°
2026-05-07 15:57 44.83679 13.93317 38032 ft 406 kts 280°
2026-05-07 15:57 44.85075 13.85616 38029 ft 406 kts 280°
2026-05-07 15:58 44.86466 13.77904 38045 ft 406 kts 280°
2026-05-07 15:58 44.87626 13.71435 38039 ft 406 kts 280°
2026-05-07 15:59 44.89004 13.63706 38030 ft 406 kts 279°
2026-05-07 15:59 44.90376 13.55977 38024 ft 407 kts 279°
2026-05-07 16:00 44.91752 13.48230 38015 ft 407 kts 279°
2026-05-07 16:00 44.93115 13.40539 38029 ft 407 kts 279°
2026-05-07 16:01 44.94477 13.32787 38021 ft 406 kts 279°
2026-05-07 16:01 44.95827 13.25047 38016 ft 406 kts 279°
2026-05-07 16:02 44.97174 13.17307 38013 ft 406 kts 279°
2026-05-07 16:02 44.98513 13.09572 38003 ft 405 kts 279°
2026-05-07 16:03 44.99830 13.01827 38001 ft 405 kts 279°
2026-05-07 16:03 45.01113 12.94073 37990 ft 405 kts 279°
2026-05-07 16:04 45.02396 12.86312 37992 ft 406 kts 279°
2026-05-07 16:04 45.03682 12.78543 37991 ft 406 kts 279°
2026-05-07 16:05 45.04964 12.70767 38011 ft 406 kts 279°
2026-05-07 16:05 45.06237 12.62982 37999 ft 406 kts 279°
2026-05-07 16:06 45.07511 12.55193 37996 ft 406 kts 279°
2026-05-07 16:06 45.08778 12.47410 37993 ft 406 kts 279°
2026-05-07 16:07 45.10042 12.39628 38006 ft 406 kts 279°
2026-05-07 16:07 45.11299 12.31830 38005 ft 406 kts 279°
2026-05-07 16:08 45.12545 12.24040 37994 ft 406 kts 279°
2026-05-07 16:08 45.13788 12.16246 37988 ft 406 kts 279°
2026-05-07 16:09 45.15026 12.08453 37984 ft 405 kts 279°
2026-05-07 16:09 45.16256 12.00655 37985 ft 405 kts 279°
2026-05-07 16:10 45.17473 11.92853 37988 ft 406 kts 279°
2026-05-07 16:10 45.18692 11.85046 37991 ft 406 kts 279°
2026-05-07 16:11 45.19911 11.77223 37998 ft 407 kts 279°
2026-05-07 16:11 45.21125 11.69392 37989 ft 407 kts 279°
2026-05-07 16:12 45.22343 11.61541 38010 ft 407 kts 279°
2026-05-07 16:12 45.23545 11.53685 37991 ft 408 kts 278°
2026-05-07 16:13 45.24742 11.45824 37998 ft 408 kts 278°
2026-05-07 16:13 45.25937 11.37950 37997 ft 408 kts 278°